| time (UTC) | temp C | wind direction | speed KPH | gust KPH | rain 1hr cm | rain 24hr cm | rain mn cm | humidity % | barometer mb |
| 20260503035003 | 10 | 83 | 12.9 | 20.9 | 0.00 | 0.00 | 0.00 | 63 | 1018.4 |
| 20260503034003 | 10 | 82 | 11.3 | 20.9 | 0.00 | 0.00 | 0.00 | 63 | 1018.4 |
| 20260503033003 | 10 | 81 | 12.9 | 20.9 | 0.00 | 0.00 | 0.00 | 62 | 1018.4 |
| 20260503032004 | 10 | 82 | 11.3 | 20.9 | 0.00 | 0.00 | 0.00 | 60 | 1018.3 |
| 20260503031003 | 11 | 85 | 9.7 | 17.7 | 0.00 | 0.00 | 0.00 | 57 | 1018.3 |
| 20260503030004 | 11 | 82 | 12.9 | 19.3 | 0.00 | 0.00 | 0.00 | 55 | 1018.2 |
| 20260503025004 | 12 | 85 | 11.3 | 19.3 | 0.00 | 0.00 | 0.00 | 53 | 1018.2 |
| 20260503024003 | 12 | 88 | 9.7 | 17.7 | 0.00 | 0.00 | 0.00 | 52 | 1018.3 |
| 20260503023003 | 12 | 84 | 9.7 | 16.1 | 0.00 | 0.00 | 0.00 | 51 | 1018.4 |
| 20260503022003 | 12 | 87 | 8.0 | 14.5 | 0.00 | 0.00 | 0.00 | 51 | 1018.4 |
| 20260503021003 | 12 | 85 | 9.7 | 17.7 | 0.00 | 0.00 | 0.00 | 51 | 1018.4 |
| 20260503020003 | 11 | 86 | 4.8 | 16.1 | 0.00 | 0.00 | 0.00 | 54 | 1018.4 |
| 20260503015004 | 12 | 65 | 4.8 | 6.4 | 0.00 | 0.00 | 0.00 | 54 | 1018.3 |
| 20260503014003 | 12 | 74 | 1.6 | 6.4 | 0.00 | 0.00 | 0.00 | 53 | 1018.3 |
| 20260503013003 | 12 | 0 | 0.0 | 0.0 | 0.00 | 0.00 | 0.00 | 52 | 1018.3 |
| 20260503012004 | 12 | 84 | 0.0 | 3.2 | 0.00 | 0.00 | 0.00 | 52 | 1018.4 |
| 20260503011004 | 12 | 84 | 3.2 | 6.4 | 0.00 | 0.00 | 0.00 | 52 | 1018.4 |
| 20260503010004 | 12 | 78 | 4.8 | 8.0 | 0.00 | 0.00 | 0.00 | 52 | 1018.4 |
| 20260503005003 | 12 | 71 | 4.8 | 8.0 | 0.00 | 0.00 | 0.00 | 51 | 1018.4 |
| 20260503004003 | 13 | 64 | 3.2 | 6.4 | 0.00 | 0.00 | 0.00 | 51 | 1018.5 |
| 20260503003004 | 13 | 69 | 4.8 | 8.0 | 0.00 | 0.00 | 0.00 | 51 | 1018.6 |
| 20260503002004 | 12 | 74 | 4.8 | 8.0 | 0.00 | 0.00 | 0.00 | 52 | 1018.6 |
| 20260503001004 | 12 | 77 | 4.8 | 9.7 | 0.00 | 0.00 | 0.00 | 52 | 1018.7 |
| 20260503000004 | 12 | 75 | 4.8 | 8.0 | 0.00 | 0.00 | 0.00 | 51 | 1018.7 |
| 20260502235003 | 13 | 77 | 4.8 | 9.7 | 0.00 | 0.00 | 0.00 | 50 | 1018.8 |
| 20260502234003 | 13 | 73 | 4.8 | 8.0 | 0.00 | 0.00 | 0.00 | 50 | 1018.9 |
| 20260502233004 | 13 | 72 | 4.8 | 9.7 | 0.00 | 0.00 | 0.00 | 50 | 1018.9 |
| 20260502232004 | 13 | 73 | 4.8 | 8.0 | 0.00 | 0.00 | 0.00 | 50 | 1019.0 |
| 20260502231004 | 13 | 72 | 6.4 | 9.7 | 0.00 | 0.00 | 0.00 | 50 | 1019.0 |
| 20260502230004 | 13 | 74 | 6.4 | 11.3 | 0.00 | 0.00 | 0.00 | 51 | 1019.1 |
| 20260502225003 | 13 | 72 | 4.8 | 8.0 | 0.00 | 0.00 | 0.00 | 51 | 1019.1 |
| 20260502224003 | 13 | 73 | 6.4 | 11.3 | 0.00 | 0.00 | 0.00 | 51 | 1019.2 |
| 20260502223004 | 13 | 77 | 6.4 | 11.3 | 0.00 | 0.00 | 0.00 | 52 | 1019.2 |
| 20260502222003 | 13 | 75 | 6.4 | 9.7 | 0.00 | 0.00 | 0.00 | 52 | 1019.3 |
| 20260502221003 | 13 | 76 | 6.4 | 8.0 | 0.00 | 0.00 | 0.00 | 52 | 1019.4 |
| 20260502220005 | 13 | 76 | 6.4 | 11.3 | 0.00 | 0.00 | 0.00 | 51 | 1019.3 |
| 20260502215003 | 13 | 75 | 6.4 | 11.3 | 0.00 | 0.00 | 0.00 | 51 | 1019.4 |
| 20260502214003 | 13 | 74 | 4.8 | 9.7 | 0.00 | 0.00 | 0.00 | 50 | 1019.3 |
| 20260502213003 | 14 | 78 | 6.4 | 8.0 | 0.00 | 0.00 | 0.00 | 49 | 1019.5 |
| 20260502212004 | 14 | 83 | 4.8 | 9.7 | 0.00 | 0.00 | 0.00 | 48 | 1019.5 |
| 20260502211003 | 14 | 85 | 4.8 | 9.7 | 0.00 | 0.00 | 0.00 | 48 | 1019.5 |
| 20260502210004 | 14 | 83 | 4.8 | 6.4 | 0.00 | 0.00 | 0.00 | 48 | 1019.5 |
| 20260502205003 | 14 | 79 | 3.2 | 6.4 | 0.00 | 0.00 | 0.00 | 46 | 1019.7 |
| 20260502204003 | 14 | 78 | 4.8 | 6.4 | 0.00 | 0.00 | 0.00 | 46 | 1019.7 |
| 20260502203003 | 15 | 82 | 3.2 | 4.8 | 0.00 | 0.00 | 0.00 | 45 | 1019.8 |
| 20260502202003 | 15 | 85 | 1.6 | 4.8 | 0.00 | 0.00 | 0.00 | 45 | 1019.7 |
| 20260502201003 | 15 | 0 | 0.0 | 0.0 | 0.00 | 0.00 | 0.00 | 45 | 1019.8 |
| 20260502200003 | 15 | 0 | 0.0 | 0.0 | 0.00 | 0.00 | 0.00 | 44 | 1019.9 |
| 20260502195003 | 15 | 93 | 0.0 | 4.8 | 0.00 | 0.00 | 0.00 | 44 | 1019.9 |
| 20260502194004 | 15 | 93 | 1.6 | 4.8 | 0.00 | 0.00 | 0.00 | 44 | 1019.9 |
| 20260502193003 | 15 | 93 | 3.2 | 4.8 | 0.00 | 0.00 | 0.00 | 44 | 1020.0 |
| 20260502192003 | 15 | 93 | 1.6 | 3.2 | 0.00 | 0.00 | 0.00 | 44 | 1019.9 |
| 20260502191004 | 16 | 100 | 1.6 | 6.4 | 0.00 | 0.00 | 0.00 | 43 | 1020.0 |
| 20260502190004 | 16 | 100 | 1.6 | 4.8 | 0.00 | 0.00 | 0.00 | 42 | 1019.9 |
| 20260502185003 | 17 | 108 | 3.2 | 6.4 | 0.00 | 0.00 | 0.00 | 41 | 1019.8 |
| 20260502184004 | 17 | 97 | 1.6 | 6.4 | 0.00 | 0.00 | 0.00 | 41 | 1019.8 |
| 20260502183003 | 17 | 85 | 1.6 | 4.8 | 0.00 | 0.00 | 0.00 | 41 | 1019.7 |
| 20260502182003 | 18 | 96 | 3.2 | 6.4 | 0.00 | 0.00 | 0.00 | 40 | 1019.6 |
| 20260502181003 | 18 | 105 | 4.8 | 9.7 | 0.00 | 0.00 | 0.00 | 38 | 1019.5 |
| 20260502164003 | 21 | 177 | 3.2 | 11.3 | 0.00 | 0.00 | 0.00 | 33 | 1019.7 |
| 20260502163003 | 21 | 100 | 3.2 | 6.4 | 0.00 | 0.00 | 0.00 | 32 | 1019.9 |
| 20260502162004 | 21 | 172 | 6.4 | 19.3 | 0.00 | 0.00 | 0.00 | 32 | 1019.9 |
| 20260502161003 | 21 | 197 | 6.4 | 14.5 | 0.00 | 0.00 | 0.00 | 32 | 1020.0 |
| 20260502152003 | 21 | 130 | 3.2 | 9.7 | 0.00 | 0.00 | 0.00 | 33 | 1020.5 |
| 20260502151004 | 21 | 102 | 8.0 | 14.5 | 0.00 | 0.00 | 0.00 | 31 | 1020.6 |
| 20260502123004 | 21 | 189 | 9.7 | 14.5 | 0.00 | 0.00 | 0.00 | 37 | 1022.3 |
| 20260502122003 | 21 | 215 | 9.7 | 17.7 | 0.00 | 0.00 | 0.00 | 38 | 1022.4 |
| 20260502121004 | 21 | 219 | 6.4 | 19.3 | 0.00 | 0.00 | 0.00 | 35 | 1022.2 |
| 20260502115003 | 21 | 13 | 4.8 | 16.1 | 0.00 | 0.00 | 0.00 | 32 | 1022.7 |
| 20260502114003 | 21 | 247 | 4.8 | 17.7 | 0.00 | 0.00 | 0.00 | 34 | 1022.8 |
| 20260502113004 | 21 | 263 | 3.2 | 11.3 | 0.00 | 0.00 | 0.00 | 33 | 1023.0 |
| 20260502112003 | 20 | 90 | 3.2 | 11.3 | 0.00 | 0.00 | 0.00 | 33 | 1023.1 |
| 20260502111007 | 20 | 85 | 4.8 | 16.1 | 0.00 | 0.00 | 0.00 | 32 | 1023.3 |
| 20260502110003 | 20 | 35 | 6.4 | 16.1 | 0.00 | 0.00 | 0.00 | 37 | 1023.3 |
| 20260502105004 | 21 | 336 | 4.8 | 17.7 | 0.00 | 0.00 | 0.00 | 33 | 1023.5 |
| 20260502104004 | 20 | 30 | 9.7 | 17.7 | 0.00 | 0.00 | 0.00 | 36 | 1023.6 |
| 20260502103004 | 20 | 46 | 6.4 | 12.9 | 0.00 | 0.00 | 0.00 | 37 | 1023.7 |
| 20260502102003 | 20 | 205 | 4.8 | 14.5 | 0.00 | 0.00 | 0.00 | 39 | 1023.8 |
| 20260502101003 | 20 | 241 | 4.8 | 16.1 | 0.00 | 0.00 | 0.00 | 39 | 1023.9 |
| 20260502091004 | 18 | 154 | 6.4 | 22.5 | 0.00 | 0.00 | 0.00 | 40 | 1024.5 |
| 20260502071003 | 16 | 230 | 6.4 | 11.3 | 0.00 | 0.00 | 0.00 | 56 | 1025.1 |
| 20260502070004 | 16 | 235 | 3.2 | 8.0 | 0.00 | 0.00 | 0.00 | 59 | 1025.1 |
| 20260502065003 | 15 | 247 | 1.6 | 4.8 | 0.00 | 0.00 | 0.00 | 61 | 1025.1 |
| 20260502064003 | 14 | 256 | 1.6 | 6.4 | 0.00 | 0.00 | 0.00 | 63 | 1025.1 |
| 20260502063004 | 14 | 271 | 4.8 | 6.4 | 0.00 | 0.00 | 0.00 | 65 | 1025.1 |
| 20260502062003 | 13 | 260 | 4.8 | 6.4 | 0.00 | 0.00 | 0.00 | 62 | 1025.0 |
| 20260502061003 | 14 | 308 | 1.6 | 3.2 | 0.00 | 0.00 | 0.00 | 62 | 1025.0 |
| 20260502060004 | 13 | 304 | 3.2 | 6.4 | 0.00 | 0.00 | 0.00 | 65 | 1025.0 |
| 20260502055004 | 12 | 310 | 3.2 | 4.8 | 0.00 | 0.00 | 0.00 | 69 | 1025.0 |
| 20260502054003 | 11 | 310 | 1.6 | 4.8 | 0.00 | 0.00 | 0.00 | 69 | 1025.1 |
| 20260502053003 | 10 | 310 | 0.0 | 3.2 | 0.00 | 0.00 | 0.00 | 69 | 1025.1 |
| 20260502052003 | 10 | 306 | 1.6 | 4.8 | 0.00 | 0.00 | 0.00 | 68 | 1025.1 |
| 20260502051003 | 10 | 0 | 0.0 | 0.0 | 0.00 | 0.00 | 0.00 | 71 | 1025.0 |
| 20260502050003 | 10 | 333 | 0.0 | 3.2 | 0.00 | 0.00 | 0.00 | 71 | 1025.0 |
| 20260502045005 | 9 | 333 | 1.6 | 4.8 | 0.00 | 0.00 | 0.00 | 73 | 1024.9 |
| 20260502044003 | 8 | 330 | 4.8 | 6.4 | 0.00 | 0.00 | 0.00 | 74 | 1024.8 |
| 20260502043003 | 8 | 325 | 8.0 | 9.7 | 0.00 | 0.00 | 0.00 | 73 | 1024.8 |
| 20260502042003 | 7 | 330 | 8.0 | 9.7 | 0.00 | 0.00 | 0.00 | 73 | 1024.8 |
| 20260502041003 | 7 | 333 | 6.4 | 12.9 | 0.00 | 0.00 | 0.00 | 74 | 1024.7 |
| 20260502040004 | 7 | 328 | 9.7 | 12.9 | 0.00 | 0.00 | 0.00 | 74 | 1024.7 |